Change the Weather History Date:

Monday, October 3, 2011

  Actual Average Record
Temperature  
Mean Temperature 48 °F -  
Max Temperature 54 °F 53 °F 62 °F (1988)
Min Temperature 41 °F 43 °F 32 °F (1957)
Degree Days  
Heating Degree Days 18    
Moisture  
Dew Point 35 °F    
Average Humidity 66    
Maximum Humidity 82    
Minimum Humidity 38    
Precipitation  
Precipitation 0.00 in - - ()
Sea Level Pressure  
Sea Level Pressure 29.50 in    
Wind  
Wind Speed 4 mph (NNE)    
Max Wind Speed 10 mph    
Max Gust Speed -    
Visibility 10 miles    
Events      
Averages and records for this station are not official NWS values.
T = Trace of Precipitation, MM = Missing Value Source: NWS Daily Summary

Daily Weather History Graph

Daily Weather History Graph

Search for Another Location

Airport or City:

Trip Planner

Search our weather history database for the weather conditions in past years. The results will help you decide how hot, cold, wet, or windy it might be!

Date:

Astronomy

Oct. 03, 2011 Rise Set
Actual Time 7:09 AM AKDT 6:30 PM AKDT
Civil Twilight 6:30 AM AKDT 7:08 PM AKDT
Nautical Twilight 5:46 AM AKDT 7:53 PM AKDT
Astronomical Twilight 5:00 AM AKDT 8:38 PM AKDT
Moon 3:18 PM AKDT (10/3) 10:39 PM AKDT (10/3)
Length of Visible Light 12h 37m
Length of Day
11h 21m
Waxing Crescent, 47% of the Moon is Illuminated
Oct 3
Waxing Crescent
Oct 3
First Quarter
Oct 11
Full
Oct 19
Last Quarter
Oct 26
New

Hourly Weather History & Observations

Time (AKDT) Temp. Windchill Dew Point Humidity Pressure Visibility Wind Dir Wind Speed Gust Speed Precip Events Conditions
12:53 AM 43.0 °F 41.3 °F 37.9 °F 82% 29.75 in 10.0 mi NNW 3.5 mph - N/A   Clear
1:53 AM 42.1 °F - 37.0 °F 82% 29.73 in 10.0 mi Calm Calm - N/A   Clear
2:53 AM 42.1 °F - 37.0 °F 82% 29.70 in 10.0 mi Calm Calm - N/A   Clear
3:53 AM 41.0 °F 39.0 °F 34.0 °F 76% 29.68 in 10.0 mi East 3.5 mph - N/A   Clear
4:53 AM 41.0 °F 39.0 °F 36.0 °F 82% 29.65 in 10.0 mi NNW 3.5 mph - N/A   Clear
5:53 AM 41.0 °F 39.0 °F 36.0 °F 82% 29.64 in 10.0 mi North 3.5 mph - N/A   Clear
6:53 AM 42.1 °F - 36.0 °F 79% 29.61 in 10.0 mi Calm Calm - N/A   Overcast
7:53 AM 42.1 °F 40.2 °F 35.1 °F 76% 29.60 in 10.0 mi North 3.5 mph - N/A   Overcast
8:53 AM 44.1 °F - 36.0 °F 73% 29.59 in 10.0 mi Calm Calm - N/A   Overcast
9:53 AM 46.9 °F - 37.9 °F 71% 29.56 in 10.0 mi North 3.5 mph - N/A   Overcast
10:53 AM 48.9 °F - 37.9 °F 66% 29.54 in 10.0 mi NNW 6.9 mph - N/A   Overcast
11:53 AM 53.1 °F - 28.9 °F 40% 29.52 in 10.0 mi ESE 10.4 mph - N/A   Overcast
12:53 PM 53.1 °F - 28.0 °F 38% 29.50 in 10.0 mi ESE 6.9 mph - N/A   Mostly Cloudy
1:53 PM 54.0 °F - 28.9 °F 38% 29.47 in 10.0 mi ESE 6.9 mph - N/A   Overcast
2:53 PM 53.1 °F - 30.9 °F 43% 29.45 in 10.0 mi SE 9.2 mph - N/A   Overcast
3:53 PM 52.0 °F - 33.1 °F 49% 29.43 in 10.0 mi Calm Calm - N/A   Overcast
4:53 PM 51.8 °F - 30.2 °F 44% 29.40 in 10.0 mi East 8.1 mph - N/A   Overcast
5:53 PM 52.0 °F - 33.1 °F 49% 29.38 in 10.0 mi ESE 5.8 mph - N/A   Overcast
6:53 PM 50.0 °F - 37.0 °F 61% 29.35 in 10.0 mi NNW 4.6 mph - N/A   Scattered Clouds
7:53 PM 48.0 °F - 36.0 °F 63% 29.33 in 10.0 mi North 3.5 mph - N/A   Scattered Clouds
8:53 PM 48.9 °F - 39.9 °F 71% 29.31 in 10.0 mi WNW 4.6 mph - N/A   Partly Cloudy
9:53 PM 46.9 °F - 39.9 °F 77% 29.28 in 10.0 mi NW 5.8 mph - N/A   Partly Cloudy
10:53 PM 46.9 °F - 41.0 °F 80% 29.24 in 10.0 mi NNW 6.9 mph - N/A   Clear
11:53 PM 45.0 °F - 37.9 °F 76% 29.21 in 10.0 mi Calm Calm - N/A   Partly Cloudy